CAPE
745 774 797 775 790 935 827 947 1147 1068 895 1148 784 675 664 1347 1528 1707 1542 1409 2080 2092 1791 1623 2098 2196 1435 796 716 667 538 469 378 242 228 348 1017 1314 1054 962 873 839 621
749 964 922 995 980 912 1085 1025 1195 1367 1214 1280 1153 988 794 1056 1502 1791 1672 1184 1581 1880 2080 2046 1951 1732 2214 2056 1243 963 632 674 566 710 542 334 414 682 867 1157 1240 875 457
810 762 746 800 875 931 1107 1141 1286 1396 1432 1264 1282 1284 1128 1033 1404 1755 1790 1593 1474 1692 1891 2029 2018 2076 2023 1705 1587 1321 1256 1544 1622 1465 1208 989 865 992 1148 1485 1465 1175 1092
722 703 798 856 908 868 1155 1345 1295 1444 1516 1492 1354 1349 1349 1118 1018 1408 1569 1702 1635 1690 1903 1981 2260 2393 2458 2611 2661 2506 2441 2274 1735 1689 1392 1105 914 885 1052 1253 1419 1353 1226
913 811 959 1197 1157 1194 1346 1461 1413 1490 1537 1620 1568 1418 1452 1322 879 1102 1290 1397 1617 1746 1784 2146 2230 2409 2480 2649 2630 2686 2732 2380 1757 1319 1146 1113 1122 1196 1427 1483 1747 1770 1791
1227 1143 1236 1557 1473 1478 1555 1682 1697 1603 1594 1715 1589 1545 1483 1351 777 586 993 1114 1271 1674 1848 2003 2169 2166 2283 2091 1973 1772 1818 2567 2915 2277 1637 1586 2285 2293 2064 2105 1917 2010 2328
1519 1486 1501 1707 1710 1717 1761 1826 1758 1748 1760 1878 1799 1715 1715 1704 1053 560 484 786 960 1365 1841 1900 1849 1537 1933 2273 1957 1697 1560 1389 1328 1763 2173 2398 2535 2816 3123 3241 2668 2967 3280
1782 1717 1732 1863 1880 1956 1963 1963 2024 1910 1948 1970 1986 2052 2003 1956 1473 949 548 899 1119 1340 1559 1742 2059 1877 1729 1688 1934 2052 2207 2419 2426 2150 2193 2339 2362 2355 2776 3205 3126 2828 2923
1875 1863 1928 1989 1954 1958 1987 2037 2030 2092 2111 2094 2097 2163 2130 2113 1526 1153 888 1085 1166 1498 1612 1845 2000 2127 2089 1882 1995 1849 1858 1900 1615 1591 1690 1751 1825 1933 2062 2383 2425 2642 2711
1883 1922 2022 2078 2135 2101 2154 2195 2268 2190 2232 2169 2231 2340 2320 2398 2133 1250 1021 1331 1271 1284 1593 2012 1704 1733 1904 1754 1916 1732 1722 1608 1680 1893 2256 2763 2463 2521 2277 2131 2579 2522 2706
1711 1712 1884 2125 2264 2309 2415 2446 2400 2211 2084 2219 2169 2297 2461 2401 2519 1617 996 1536 1322 1250 1214 1021 1212 1145 1287 1182 1151 1782 1892 1965 2271 2824 3290 3563 3484 3301 3364 3457 3048 2560 2561
1749 1782 2067 2197 2085 2144 2534 2519 2470 2452 2439 2534 2441 2416 2273 2440 2171 1942 1418 1298 1601 1607 1409 1204 1607 1604 1374 1307 1242 1453 1532 1561 2119 2598 2967 3210 3098 3020 2952 2753 2973 3071 2879
1962 2101 2123 2215 2206 2251 2514 2671 2631 2705 2578 2576 2589 2544 2410 2471 2762 2123 1485 1286 1290 1553 2031 2259 2322 2356 2138 1919 1690 1720 1438 1848 2337 2655 2724 2686 2637 2304 2627 2576 2535 2257 1557
2228 2317 2384 2536 2484 2294 2502 2645 2558 2563 2611 2542 2642 2644 2665 2707 2886 3181 2559 1503 1144 1188 1350 1935 2411 2406 2445 2586 2786 2270 2247 2621 2590 2640 2324 2023 2100 2279 2326 1504 453 294 207
2384 2458 2620 2662 2606 2751 2696 2492 2751 2713 2166 2814 2720 2877 2970 3045 3127 3263 3449 3531 2875 2138 2164 2367 2524 2536 2709 2996 3128 3150 3183 2713 2137 1924 1847 1924 2314 1787 526 230 222 180 161
2233 2212 2309 2368 2683 2728 2876 2286 557 844 1186 1633 1744 2349 3231 2923 2912 2968 3024 3010 2800 2610 2548 2975 2920 2878 2969 3057 3088 2976 2687 2323 2150 1895 1986 1321 722 336 222 169 101 58 86
2012 2673 2650 2254 2449 2684 2508 2522 1685 931 883 1210 1508 1904 2144 2150 2507 2593 2464 2089 2037 2521 3361 3189 3342 3531 3264 2951 2671 2264 2148 1487 1153 1086 740 534 228 193 98 56 4 120 121
993 1102 2192 1747 275 204 112 252 0 117 2124 2293 984 1213 1368 1766 1875 1897 1755 1882 2035 1915 2909 3114 3045 2674 2237 1882 1430 1304 1045 1056 808 472 265 174 175 189 30 3 66 137 40
960 1071 1575 1390 563 316 308 175 317 767 2625 2840 1103 146 229 562 1047 1209 1426 3468 3355 2554 1933 1885 1540 1097 893 673 576 594 700 495 206 146 138 62 46 14 5 2 51 1 0
403 328 739 1641 1534 563 418 362 1947 2548 2765 2564 1676 1120 117 729 1521 1425 1358 2056 2109 1515 1048 854 427 272 173 156 159 188 151 56 30 15 9 4 5 6 4 3 1 2 4
22 334 394 1054 1388 1477 1429 1443 1767 2215 2419 2515 1983 150 366 1331 1348 862 381 292 285 311 260 48 10 0 1 2 36 84 26 2 0 0 0 0 1 5 2 6 7 2 5
0 20 376 681 1031 914 817 601 730 1373 788 157 2 1 4 99 3 2 4 3 3 3 2 1 0 0 0 0 0 0 0 1 2 2 1 2 6 2 3 1 2 1 1
0 0 24 359 840 462 610 466 297 219 263 49 11 5 0 0 0 3 4 2 1 0 0 0 0 0 0 0 0 0 0 0 0 0 0 0 4 1 4 5 6 9 5
0 0 30 217 245 401 511 312 106 0 0 0 0 0 0 0 2 3 2 1 1 0 0 0 0 0 0 0 0 0 0 0 0 0 0 0 0 7 6 12 24 26 17
0 5 4 2 2 2 1 1 1 1 1 1 2 0 1 1 3 3 1 0 0 0 0 0 0 0 0 0 0 0 0 0 0 0 0 0 0 0 2 22 30 30 22
6 3 5 3 2 1 1 4 3 2 2 2 1 2 1 1 1 1 0 0 0 0 0 0 0 0 0 0 0 0 0 0 0 0 0 0 0 0 0 0 4 40 32
CIN
-137 -109 -86 -85 -77 -60 -52 -48 -45 -37 -35 -42 -54 -66 -66 -8 -6 -7 -6 -1 -1 -1 0 -4 -2 -1 -15 -42 -77 -99 -118 -140 -145 -158 -167 -165 -159 -168 -174 -179 -205 -214 -235
-171 -130 -117 -87 -78 -65 -62 -62 -59 -52 -45 -47 -47 -58 -80 -30 -3 -7 -15 -22 -4 -2 -1 0 -11 -18 -18 -21 -56 -98 -117 -129 -166 -167 -171 -215 -212 -201 -226 -236 -205 -194 -252
-188 -182 -153 -128 -110 -80 -76 -68 -66 -66 -59 -46 -46 -52 -67 -63 -17 -8 -10 -20 -10 -9 -3 -2 -13 -11 -35 -51 -58 -68 -72 -75 -85 -117 -165 -159 -176 -169 -173 -178 -195 -236 -252
-175 -173 -172 -166 -140 -119 -95 -75 -64 -76 -67 -63 -53 -54 -61 -76 -76 -43 -33 -23 -19 -16 -9 -5 -2 -4 -15 -23 -19 -28 -32 -35 -60 -83 -129 -149 -166 -185 -174 -185 -198 -151 -178
-176 -170 -170 -154 -127 -108 -100 -96 -83 -80 -82 -78 -64 -64 -60 -65 -113 -106 -87 -59 -36 -38 -34 -14 -10 -12 -24 -25 -11 -16 -12 -28 -66 -101 -135 -146 -150 -138 -100 -115 -111 -118 -124
-209 -201 -155 -144 -136 -135 -111 -107 -102 -101 -99 -81 -86 -78 -70 -70 -136 -185 -134 -102 -75 -47 -39 -37 -31 -32 -60 -92 -111 -117 -95 -21 -3 -33 -112 -127 -54 -47 -63 -65 -99 -93 -137
-247 -224 -182 -181 -167 -152 -131 -122 -118 -111 -102 -103 -91 -82 -87 -85 -143 -214 -220 -139 -107 -84 -54 -55 -61 -66 -71 -54 -99 -148 -192 -249 -276 -178 -143 -102 -73 -29 -10 -9 -57 -34 -36
-268 -265 -233 -225 -198 -162 -148 -140 -126 -117 -105 -107 -102 -90 -89 -104 -147 -219 -264 -173 -133 -109 -89 -85 -75 -95 -99 -97 -86 -84 -83 -75 -110 -186 -204 -176 -147 -123 -45 -17 -38 -75 -85
-307 -302 -269 -258 -233 -188 -164 -147 -139 -116 -108 -114 -112 -114 -114 -129 -187 -234 -275 -190 -177 -167 -148 -123 -115 -122 -133 -160 -141 -170 -185 -184 -196 -243 -247 -244 -229 -202 -158 -83 -120 -62 -108
-374 -354 -266 -223 -228 -219 -187 -180 -162 -142 -136 -123 -110 -110 -129 -129 -166 -270 -296 -185 -193 -209 -187 -164 -230 -233 -209 -241 -220 -239 -251 -255 -228 -196 -157 -102 -176 -144 -157 -155 -71 -78 -64
-370 -341 -288 -246 -224 -201 -177 -164 -164 -157 -136 -152 -130 -120 -129 -154 -150 -288 -407 -258 -243 -227 -240 -237 -235 -318 -357 -398 -416 -283 -256 -212 -165 -87 -40 -17 -6 -8 -2 -3 -20 -50 -49
-352 -330 -292 -269 -241 -191 -157 -135 -121 -118 -126 -115 -136 -134 -145 -145 -202 -268 -398 -435 -305 -261 -253 -215 -206 -260 -351 -382 -413 -384 -356 -323 -190 -112 -49 -17 -15 -30 -34 -40 -8 -9 -27
-302 -282 -277 -250 -237 -197 -168 -137 -118 -105 -107 -127 -121 -123 -120 -118 -144 -285 -439 -511 -489 -388 -245 -180 -183 -212 -264 -300 -352 -331 -370 -255 -149 -92 -83 -93 -66 -111 -45 -57 -62 -106 -210
-228 -211 -205 -187 -178 -177 -150 -129 -127 -117 -117 -107 -99 -92 -90 -104 -109 -104 -267 -499 -574 -542 -477 -311 -208 -196 -191 -169 -131 -217 -202 -103 -99 -93 -133 -176 -136 -75 -53 -165 -387 -442 -474
-180 -148 -145 -142 -160 -125 -102 -99 -75 -64 -155 -71 -79 -68 -64 -66 -63 -78 -74 -99 -193 -326 -281 -233 -197 -189 -155 -94 -62 -43 -41 -85 -171 -190 -178 -132 -56 -105 -378 -507 -507 -520 -503
-165 -181 -162 -125 -103 -85 -66 -144 -556 -496 -408 -309 -292 -176 -40 -91 -130 -133 -134 -132 -189 -213 -223 -128 -138 -128 -103 -68 -50 -54 -77 -122 -130 -135 -88 -182 -301 -417 -489 -540 -594 -613 -569
-141 -95 -105 -118 -89 -57 -88 -92 -208 -396 -418 -346 -344 -296 -245 -291 -220 -213 -235 -290 -299 -197 -83 -110 -72 -31 -31 -46 -66 -129 -112 -223 -272 -245 -294 -335 -483 -519 -609 -630 -684 -499 -432
-299 -286 -94 -178 -457 -494 -474 -401 0 -322 -145 -124 -438 -446 -414 -329 -312 -316 -341 -303 -256 -276 -119 -84 -77 -99 -141 -187 -249 -246 -276 -244 -300 -374 -471 -537 -515 -497 -656 0 -527 -403 -491
-210 -117 -114 -152 -355 -367 -366 -308 -277 -143 -2 -34 -381 -608 -810 -660 -492 -450 -372 -27 -32 -127 -206 -193 -235 -328 -357 -406 -400 -346 -301 -371 -512 -547 -531 -608 -617 -345 0 0 -496 -1 -1
-298 -309 -248 -73 -69 -318 -147 -249 -121 -77 -13 -15 -154 -342 -820 -529 -303 -305 -298 -144 -120 -199 -282 -318 -463 -504 -574 -554 -538 -486 -510 -560 -623 -651 -143 0 -156 0 0 0 0 0 0
-578 -253 -277 -68 -69 -77 -147 -224 -163 -32 -2 0 -75 -671 -599 -270 -248 -325 -479 -493 -452 -454 -437 -631 -369 0 0 0 -590 -515 -575 -1 -2 -1 -3 -3 -1 0 -1 -1 -1 0 -1
0 -435 -210 -118 -81 -134 -190 -289 -254 -78 -230 -524 0 0 -568 -638 -330 0 0 0 0 0 0 0 0 0 0 0 0 0 -1 -1 -1 -1 -2 -1 -1 -1 0 -1 -1 -1 -1
0 0 -306 -141 -42 -172 -115 -194 -300 -395 -407 -600 -680 -370 0 0 0 0 0 0 0 0 0 0 0 0 0 0 0 0 0 0 0 0 0 0 -1 -4 0 -1 -3 -2 -1
0 0 -357 -210 -191 -106 -90 -214 -445 -56 0 0 0 0 0 0 0 0 0 0 0 0 0 0 0 0 0 0 0 0 0 0 0 0 0 0 0 0 -4 -2 -2 -2 -2
0 -1 0 0 0 0 0 0 0 0 0 0 0 0 0 0 0 0 0 0 0 0 0 0 0 0 0 0 0 0 0 0 0 0 0 0 0 0 -1 -2 -1 -1 -1
0 0 0 0 0 0 0 0 0 0 0 0 0 0 0 0 0 0 0 0 0 0 0 0 0 0 0 0 0 0 0 0 0 0 0 0 0 0 0 0 -3 -1 -2
Wind_Speed
24 29 35 49 49 46 45 43 41 39 37 35 33 30 24 22 18 19 22 23 19 20 22 23 25 26 25 24 23 23 21 20 17 17 18 16 13 14 15 14 10 9 8
24 25 25 31 43 48 45 44 41 41 40 38 36 22 13 15 12 14 18 21 22 22 21 23 28 28 27 26 26 25 24 22 20 19 20 20 18 15 14 14 11 11 12
24 23 24 23 23 22 19 22 25 42 41 40 37 7 6 9 9 12 15 20 26 26 24 24 29 31 30 28 26 25 23 22 21 20 19 18 17 17 15 12 11 12 11
21 23 24 22 22 22 23 23 19 26 37 40 13 11 8 10 11 11 12 18 25 27 27 27 30 33 32 29 26 26 26 26 23 19 19 17 15 13 11 13 13 9 11
21 22 22 24 25 25 24 22 20 20 23 24 18 12 11 13 13 14 18 20 23 27 28 27 32 36 35 33 29 25 25 23 22 20 19 16 13 11 12 16 20 17 14
19 21 22 24 24 24 24 23 23 20 20 20 18 14 14 15 15 17 20 22 24 25 27 28 34 36 36 34 32 31 28 25 24 23 22 21 17 15 15 16 20 22 26
19 19 20 21 22 23 23 23 22 21 22 23 19 15 14 16 17 19 23 24 25 26 27 29 34 36 34 33 30 27 26 25 23 22 25 21 23 16 17 19 19 19 20
19 19 20 19 20 21 21 20 21 22 21 24 22 18 15 17 18 19 21 23 29 32 31 29 33 36 36 34 30 27 23 17 12 13 16 18 18 15 13 15 17 20 19
22 20 20 19 19 20 21 20 21 23 23 23 21 20 15 16 17 21 20 24 30 32 33 32 35 37 37 32 28 27 24 22 19 19 22 24 22 19 17 16 18 18 21
24 25 18 19 19 19 19 19 22 23 22 22 22 19 15 15 15 22 23 27 31 34 33 31 34 36 35 23 22 25 27 27 22 22 19 13 12 14 15 16 17 18 21
20 18 18 19 18 18 20 21 21 22 21 20 20 21 17 15 15 23 27 29 34 31 31 31 31 26 26 27 26 25 25 20 17 13 14 15 16 19 21 20 18 20 20
21 17 16 16 17 16 17 18 20 20 20 20 20 21 19 20 13 19 28 33 37 35 32 30 33 15 11 15 16 16 16 16 14 16 17 19 21 22 23 23 21 18 18
21 17 15 14 16 17 16 17 18 18 19 17 18 21 21 17 18 21 22 27 31 32 39 38 33 24 18 13 11 12 11 11 14 18 22 23 23 25 24 22 17 17 18
22 19 16 13 16 19 19 20 21 20 20 22 21 23 24 22 19 18 12 13 18 14 29 39 31 29 24 24 23 18 16 14 14 17 24 25 22 20 19 21 23 26 28
21 20 16 15 14 17 21 23 26 27 28 28 27 24 23 23 22 19 17 14 14 14 16 17 17 18 19 19 19 17 17 18 18 19 21 21 19 20 21 22 24 27 28
19 17 17 17 16 17 19 22 22 25 27 28 29 28 25 24 22 19 20 21 18 16 17 20 20 20 21 20 19 18 17 17 16 18 19 21 20 20 21 23 24 27 28
15 14 16 16 16 16 18 20 22 23 28 34 36 33 30 25 25 23 22 21 19 17 20 20 21 21 21 20 19 19 18 17 16 19 19 20 20 20 21 23 25 24 26
12 15 15 15 15 18 21 22 23 32 35 34 35 32 32 30 26 24 21 19 22 22 20 22 22 21 21 20 19 19 18 17 18 19 19 19 19 21 21 23 23 24 28
14 19 17 16 19 17 17 21 27 31 44 34 28 28 26 24 23 20 17 21 21 21 21 22 22 21 21 20 19 19 20 20 20 20 20 20 20 20 21 22 23 27 27
16 16 18 17 17 19 17 14 18 25 28 28 25 22 17 18 20 20 20 20 20 20 20 20 20 20 19 19 19 19 19 19 20 20 20 20 20 20 21 22 23 25 27
17 18 16 16 13 12 10 13 14 16 14 14 13 18 15 16 15 16 16 17 17 19 19 18 18 18 18 20 20 19 19 20 20 20 20 21 21 22 22 24 25 26 25
21 20 19 17 15 14 14 13 14 16 16 17 18 17 15 16 15 15 15 15 15 15 16 16 17 18 19 19 20 20 21 21 21 22 22 22 22 22 22 23 22 23 25
25 24 21 19 17 14 13 13 13 15 17 18 17 16 15 14 13 14 14 15 15 15 16 17 18 19 20 21 21 22 23 23 23 24 24 23 22 23 23 24 24 25 25
28 27 25 22 19 20 17 16 15 14 16 16 15 16 15 14 13 12 12 13 13 14 15 16 17 19 19 20 21 22 23 25 25 24 25 24 25 24 24 24 26 25 26
30 28 25 24 23 23 22 21 18 17 16 18 17 16 15 15 14 13 13 13 13 13 13 14 15 17 20 21 23 24 26 26 25 26 24 23 25 26 26 26 26 26 24
29 27 27 26 24 24 23 23 23 20 19 19 18 17 16 16 17 16 14 13 13 14 14 15 16 17 19 21 24 25 26 27 27 28 27 25 26 26 27 29 28 26 25
Wind_Direction
223 234 237 221 215 225 214 221 220 220 224 218 215 203 185 177 168 169 181 185 168 174 181 188 203 220 216 214 213 216 212 210 206 215 221 222 208 222 233 230 228 235 243
228 230 229 239 234 223 207 211 231 221 222 221 226 186 174 174 169 171 176 183 185 184 182 188 210 218 211 218 221 219 220 220 218 226 233 239 235 231 237 242 247 256 260
232 228 228 221 224 229 225 243 249 229 225 222 223 215 215 185 180 178 179 186 197 198 194 194 211 223 219 219 213 219 216 216 220 226 234 236 240 243 246 251 259 266 276
223 229 231 220 219 223 235 240 239 250 244 236 250 247 224 194 190 187 184 187 198 202 203 202 210 221 219 215 213 218 223 230 229 227 234 238 240 243 248 258 268 282 286
224 220 226 231 233 235 237 237 236 243 253 257 255 236 218 198 196 193 190 192 195 204 205 203 214 225 225 223 220 216 221 222 226 229 233 235 239 246 253 265 270 278 290
218 215 228 233 232 233 236 237 241 238 243 251 248 241 215 203 200 196 193 195 199 202 206 208 222 230 227 224 222 224 226 226 227 232 238 241 245 254 261 271 275 281 282
215 220 222 227 227 228 233 237 235 239 246 249 249 240 222 207 202 199 197 199 202 203 207 211 222 230 222 226 221 218 221 224 226 232 240 244 253 263 271 276 280 285 288
216 217 221 220 225 231 228 225 234 241 241 249 253 249 236 207 205 202 200 200 206 212 210 209 218 230 233 229 224 222 220 220 227 233 239 247 254 268 291 290 293 291 297
201 206 211 216 222 229 228 226 234 241 245 248 252 253 231 214 207 201 199 200 205 209 212 213 219 228 231 223 222 228 231 234 238 244 248 253 258 266 280 292 305 304 300
196 190 212 225 227 225 226 229 239 243 245 249 251 250 234 223 213 200 198 198 204 210 213 213 219 223 226 219 223 229 235 239 242 247 252 268 284 290 298 306 310 314 318
209 198 202 224 224 232 236 238 239 240 245 245 250 255 252 236 217 198 196 197 204 207 211 216 219 215 219 223 226 230 235 242 250 273 296 305 313 319 322 326 322 316 317
225 210 200 223 224 224 229 237 240 242 243 249 252 257 259 261 225 195 195 199 207 211 213 216 226 223 240 228 230 238 247 250 277 301 306 311 317 321 322 323 326 324 323
225 218 213 208 223 234 228 233 236 239 244 244 250 257 261 263 264 199 199 201 205 210 225 257 277 292 297 291 261 260 271 292 302 309 313 317 321 322 325 329 330 332 333
225 225 226 209 230 240 243 243 244 244 247 254 257 260 262 264 266 267 246 236 213 231 216 247 280 288 296 299 303 303 302 300 301 310 316 320 325 328 330 335 336 338 339
226 230 229 233 227 239 244 247 247 248 251 253 257 261 262 265 266 268 270 271 269 265 274 282 285 287 291 297 299 301 305 307 307 314 318 322 327 330 333 336 337 339 340
227 231 232 237 238 240 239 246 253 255 259 260 261 263 266 270 275 270 271 274 281 280 281 285 290 293 295 298 300 303 307 310 314 317 319 322 326 329 332 335 338 339 341
241 238 236 237 240 237 244 248 252 260 266 263 259 262 265 274 270 272 274 276 276 279 284 291 293 295 297 300 304 307 309 313 318 317 319 322 325 328 331 334 337 340 343
251 251 242 234 242 244 254 260 265 255 271 268 262 264 265 268 272 276 276 277 279 279 287 292 297 299 298 299 302 306 310 315 317 318 320 323 325 327 329 333 336 338 340
267 261 257 259 256 257 264 276 275 253 246 264 270 269 268 269 272 275 274 277 279 282 289 294 299 300 299 300 302 304 309 312 314 317 320 322 324 326 327 330 332 334 337
278 278 274 274 275 273 283 236 258 265 270 272 276 277 272 271 272 274 279 281 285 287 290 294 298 299 300 301 303 306 308 311 314 316 318 322 324 325 326 328 330 332 335
283 283 286 285 291 288 282 274 267 270 261 268 281 286 281 281 278 279 282 288 290 294 296 299 301 302 302 302 305 306 308 311 314 317 319 321 323 323 325 327 328 330 332
284 285 287 291 292 289 288 285 274 271 275 277 282 285 285 286 284 285 288 292 297 302 303 302 304 305 305 305 306 307 308 310 313 316 317 319 321 322 323 325 326 329 332
279 281 284 285 286 288 287 283 277 276 277 276 277 280 284 287 288 289 291 295 299 303 305 307 308 308 308 308 310 310 310 312 314 316 317 319 320 321 323 324 325 327 329
279 278 278 279 283 281 281 282 284 283 281 281 281 282 284 289 293 296 297 300 303 306 309 311 311 311 312 313 314 314 315 314 314 315 316 316 317 319 320 322 322 324 327
275 278 280 281 282 281 281 283 283 285 286 283 284 286 286 287 290 294 299 302 305 307 311 314 315 316 316 315 315 315 317 318 319 318 317 316 316 316 316 317 319 320 322
276 275 277 279 281 283 282 282 282 282 282 282 284 289 290 291 289 289 293 297 302 306 309 313 316 318 319 321 321 322 322 322 321 320 319 318 318 318 317 316 316 316 316